�N����,����,�~����,�C��,���x,�C��,����,���ϕ���,�ő�u�ԕ���,�ő厞����,���˗�,�I�_���x,�n�����x,�ő啗���N��,DTYPE
"20/03/20","00:10",0.0,16.1,84.1,997.9,290.2,0.7,1.6,278.4,0.00,13.5,13.2,"00:00:08",1
"20/03/20","00:20",0.0,15.7,84.3,998.2,332.1,1.5,3.1,339.0,0.00,13.1,13.2,"00:12:08",1
"20/03/20","00:30",0.0,15.8,84.5,997.9,300.9,1.5,3.2,326.7,0.00,13.2,13.2,"00:24:40",1
"20/03/20","00:40",0.0,15.8,84.6,998.2,302.5,1.1,2.5,310.1,0.00,13.3,13.2,"00:34:40",1
"20/03/20","00:50",0.0,15.5,84.7,998.2,314.3,1.3,3.6,304.7,0.00,13.0,13.3,"00:40:02",1
"20/03/20","01:00",0.0,16.0,83.4,998.2,268.3,2.2,3.9,239.1,0.00,13.2,13.1,"00:52:56",1
"20/03/20","01:10",0.0,16.3,80.6,998.4,286.4,2.7,5.6,299.5,0.00,13.0,13.1,"01:05:12",1
"20/03/20","01:20",0.0,16.3,77.2,998.6,276.1,2.1,7.2,343.4,0.00,12.3,13.2,"01:10:02",1
"20/03/20","01:30",0.0,16.6,71.2,999.1,273.0,4.1,8.2,224.1,0.00,11.4,13.0,"01:23:52",1
"20/03/20","01:40",0.0,14.4,64.6,999.6,328.2,6.1,10.3,338.2,0.00,7.9,13.1,"01:30:56",1
"20/03/20","01:50",0.0,12.4,64.8,999.3,334.3,7.5,12.4,341.6,0.00,6.0,12.9,"01:42:56",1
"20/03/20","02:00",0.0,12.0,65.0,1000.0,321.8,6.8,11.6,314.6,0.00,5.7,12.8,"01:52:08",1
"20/03/20","02:10",0.0,11.0,67.0,1000.3,330.8,7.5,11.2,331.7,0.00,5.2,12.8,"02:01:26",1
"20/03/20","02:20",0.2,10.6,69.1,1000.3,329.2,6.5,12.1,344.8,0.00,5.2,12.6,"02:10:08",1
"20/03/20","02:30",0.0,10.7,68.3,1000.5,323.7,4.6,7.7,323.8,0.00,5.1,12.5,"02:21:52",1
"20/03/20","02:40",0.0,10.6,66.2,1001.0,327.6,7.3,11.2,342.8,0.00,4.6,12.4,"02:33:28",1
"20/03/20","02:50",0.0,10.6,64.3,1001.2,330.0,8.9,12.9,340.6,0.00,4.2,12.4,"02:45:08",1
"20/03/20","03:00",0.0,10.6,63.4,1001.0,322.4,8.4,14.7,327.8,0.00,4.0,12.3,"02:55:12",1
"20/03/20","03:10",0.0,10.4,63.3,1001.2,329.1,6.8,13.7,330.7,0.00,3.8,12.3,"03:00:40",1
"20/03/20","03:20",0.0,10.4,62.7,1001.0,319.4,6.2,11.4,330.1,0.00,3.6,12.0,"03:17:00",1
"20/03/20","03:30",0.0,10.5,61.1,1001.7,325.5,7.5,12.5,323.7,0.00,3.4,12.0,"03:29:14",1
"20/03/20","03:40",0.0,10.3,61.3,1001.7,320.2,6.1,9.6,343.9,0.00,3.2,11.8,"03:31:52",1
"20/03/20","03:50",0.0,10.0,63.3,1001.9,304.0,4.5,7.0,315.7,0.00,3.4,11.8,"03:40:24",1
"20/03/20","04:00",0.0,9.8,63.1,1002.2,309.8,4.6,8.0,327.4,0.00,3.2,11.7,"03:59:28",1
"20/03/20","04:10",0.0,9.7,62.4,1002.4,309.8,3.7,10.1,337.5,0.00,2.9,11.5,"04:00:16",1
"20/03/20","04:20",0.0,9.4,62.5,1002.6,319.0,3.4,6.4,333.2,0.00,2.6,11.6,"04:19:20",1
"20/03/20","04:30",0.0,9.4,60.7,1002.6,302.6,3.0,4.9,315.4,0.00,2.2,11.4,"04:23:28",1
"20/03/20","04:40",0.0,9.4,58.1,1002.9,311.6,3.1,5.9,339.6,0.00,1.6,11.5,"04:37:36",1
"20/03/20","04:50",0.0,9.4,53.7,1002.9,307.5,4.0,7.3,311.5,0.00,0.5,11.3,"04:44:10",1
"20/03/20","05:00",0.0,9.4,51.2,1003.1,325.7,5.4,8.9,340.3,0.00,-0.1,11.3,"04:55:20",1
"20/03/20","05:10",0.0,9.2,50.3,1003.1,310.5,3.5,5.6,344.5,0.00,-0.6,11.3,"05:04:40",1
"20/03/20","05:20",0.0,9.1,48.2,1003.1,313.6,4.6,8.7,331.0,0.00,-1.2,11.2,"05:10:40",1
"20/03/20","05:30",0.0,9.1,46.6,1003.6,314.6,4.6,9.6,328.8,0.00,-1.7,11.2,"05:21:28",1
"20/03/20","05:40",0.0,8.8,47.1,1003.8,294.4,3.0,5.5,257.8,0.00,-1.8,11.2,"05:30:56",1
"20/03/20","05:50",0.0,8.8,46.3,1004.1,324.0,4.0,7.1,324.0,0.00,-2.0,11.1,"05:44:48",1
"20/03/20","06:00",0.0,8.5,46.9,1004.3,317.8,3.6,6.5,348.7,0.00,-2.1,10.9,"05:51:44",1
"20/03/20","06:10",0.0,8.2,47.9,1004.3,298.2,2.6,5.8,292.8,0.00,-2.1,10.7,"06:00:02",1
"20/03/20","06:20",0.0,8.3,47.9,1004.3,308.1,4.0,7.0,336.1,0.00,-2.0,10.5,"06:18:16",1
"20/03/20","06:30",0.0,8.5,48.0,1004.8,326.1,3.9,6.4,321.7,0.00,-1.8,10.7,"06:20:56",1
"20/03/20","06:40",0.0,8.2,49.8,1004.8,328.3,3.4,6.5,310.4,0.00,-1.6,10.5,"06:30:48",1
"20/03/20","06:50",0.0,7.9,51.7,1004.1,319.8,3.1,6.6,336.9,0.00,-1.4,10.6,"06:43:12",1
"20/03/20","07:00",0.0,8.0,53.0,1004.3,330.9,3.6,6.3,334.9,0.00,-0.9,10.5,"06:55:28",1
"20/03/20","07:10",0.0,8.1,54.0,1005.0,312.8,2.7,4.3,314.3,0.00,-0.6,10.6,"07:00:56",1
"20/03/20","07:20",0.0,8.3,54.8,1005.0,295.7,2.0,3.9,330.4,0.00,-0.2,10.3,"07:10:02",1
"20/03/20","07:30",0.0,8.3,54.3,1004.5,304.5,2.7,4.9,326.2,0.01,-0.3,10.5,"07:26:00",1
"20/03/20","07:40",0.0,8.1,55.1,1005.2,314.5,2.7,5.0,338.1,0.00,-0.3,10.5,"07:37:44",1
"20/03/20","07:50",0.0,8.5,56.1,1005.2,300.8,3.0,6.6,346.8,0.04,0.3,10.3,"07:45:28",1
"20/03/20","08:00",0.0,8.9,55.2,1005.2,312.9,3.2,5.6,317.7,0.05,0.4,10.2,"07:55:12",1
"20/03/20","08:10",0.0,9.2,55.7,1005.7,304.2,3.4,5.0,316.7,0.08,0.9,10.4,"08:04:24",1
"20/03/20","08:20",0.0,9.6,55.0,1005.7,293.6,2.8,4.7,336.8,0.11,1.0,10.3,"08:14:32",1
"20/03/20","08:30",0.0,9.9,54.1,1005.7,283.7,2.8,5.2,290.2,0.15,1.1,10.3,"08:20:16",1
"20/03/20","08:40",0.0,10.2,53.6,1006.0,290.9,3.0,4.9,257.9,0.16,1.3,10.6,"08:30:32",1
"20/03/20","08:50",0.0,10.4,52.4,1005.7,294.2,3.1,6.6,323.1,0.19,1.1,10.5,"08:49:20",1
"20/03/20","09:00",0.0,10.7,51.3,1006.2,277.8,2.8,6.0,284.1,0.23,1.1,10.7,"08:59:28",1
"20/03/20","09:10",0.0,11.0,50.2,1006.4,297.3,3.5,7.2,334.2,0.24,1.1,10.7,"09:05:56",1
"20/03/20","09:20",0.0,10.6,51.0,1006.0,270.6,4.4,10.9,279.2,0.24,0.9,10.8,"09:13:36",1
"20/03/20","09:30",0.0,11.1,50.5,1006.4,288.4,3.1,6.7,313.4,0.30,1.3,11.1,"09:26:32",1
"20/03/20","09:40",0.0,11.6,50.1,1006.4,292.6,3.1,6.2,333.1,0.34,1.6,11.1,"09:37:20",1
"20/03/20","09:50",0.0,11.4,49.6,1006.7,300.8,3.5,8.1,330.6,0.27,1.3,11.1,"09:40:56",1
"20/03/20","10:00",0.0,11.7,51.1,1006.7,290.8,2.6,7.1,342.7,0.28,2.0,11.2,"09:50:08",1
"20/03/20","10:10",0.0,11.5,48.8,1006.4,317.9,3.7,6.7,347.9,0.31,1.1,11.4,"10:06:00",1
"20/03/20","10:20",0.0,11.8,49.0,1006.9,282.2,3.0,6.0,294.8,0.36,1.5,11.3,"10:11:36",1
"20/03/20","10:30",0.0,12.0,46.9,1007.1,279.2,3.6,7.8,316.8,0.42,1.1,11.7,"10:24:56",1
"20/03/20","10:40",0.0,12.3,46.0,1006.9,268.3,3.1,6.2,265.3,0.47,1.1,11.8,"10:38:24",1
"20/03/20","10:50",0.0,12.5,44.2,1006.7,305.0,3.7,7.5,270.6,0.44,0.7,11.8,"10:48:16",1
"20/03/20","11:00",0.0,12.5,44.6,1006.9,280.4,3.4,7.4,233.2,0.30,0.8,12.0,"10:56:00",1
"20/03/20","11:10",0.0,12.6,44.9,1007.1,289.7,4.0,7.1,325.3,0.32,1.0,12.1,"11:02:24",1
"20/03/20","11:20",0.0,12.5,44.9,1006.9,285.4,3.4,6.2,318.8,0.33,0.9,12.3,"11:14:40",1
"20/03/20","11:30",0.0,12.9,44.4,1007.1,276.7,3.9,6.6,257.8,0.58,1.1,12.3,"11:20:24",1
"20/03/20","11:40",0.0,13.1,44.1,1007.1,286.0,3.5,9.1,344.9,0.44,1.2,12.6,"11:36:00",1
"20/03/20","11:50",0.0,13.6,44.0,1006.9,327.5,4.1,9.6,279.1,0.52,1.6,12.7,"11:40:48",1
"20/03/20","12:00",0.0,13.9,41.0,1006.7,283.3,3.5,8.3,350.0,0.54,0.9,12.7,"11:50:32",1
"20/03/20","12:10",0.0,13.6,43.3,1006.7,288.8,4.1,7.9,328.2,0.47,1.4,13.1,"12:02:56",1
"20/03/20","12:20",0.0,13.9,43.0,1006.7,282.7,3.5,8.3,339.4,0.60,1.6,13.2,"12:16:24",1
"20/03/20","12:30",0.0,14.0,42.1,1006.7,326.0,3.6,7.3,315.2,0.50,1.4,13.3,"12:24:56",1
"20/03/20","12:40",0.0,14.4,41.1,1006.4,270.3,3.4,8.8,231.2,0.58,1.4,13.6,"12:36:56",1
"20/03/20","12:50",0.0,14.7,40.8,1006.9,280.9,4.0,6.4,252.3,0.61,1.6,13.8,"12:47:12",1
"20/03/20","13:00",0.0,15.1,40.4,1006.4,280.0,3.4,7.1,283.8,0.69,1.8,13.8,"12:51:28",1
"20/03/20","13:10",0.0,15.2,39.1,1006.4,273.5,3.4,7.3,327.2,0.72,1.4,13.8,"13:01:36",1
"20/03/20","13:20",0.0,15.1,40.5,1006.2,299.1,4.5,8.9,338.6,0.67,1.8,14.4,"13:14:24",1
"20/03/20","13:30",0.0,15.3,39.0,1006.2,276.6,3.9,7.7,335.1,0.63,1.5,14.4,"13:29:28",1
"20/03/20","13:40",0.0,15.4,38.3,1006.2,311.9,3.2,6.2,332.9,0.58,1.3,14.6,"13:30:16",1
"20/03/20","13:50",0.0,15.9,38.3,1006.2,294.7,3.0,6.8,322.7,0.61,1.8,14.8,"13:49:44",1
"20/03/20","14:00",0.0,15.3,36.9,1006.2,297.6,4.4,11.0,337.7,0.59,0.7,14.8,"13:59:04",1
"20/03/20","14:10",0.0,15.1,37.9,1006.0,295.7,4.5,9.4,335.8,0.58,0.9,15.0,"14:07:36",1
"20/03/20","14:20",0.0,15.7,38.5,1006.2,305.8,4.0,9.1,349.4,0.56,1.7,15.0,"14:11:28",1
"20/03/20","14:30",0.0,15.8,37.8,1006.0,345.8,3.2,5.7,348.2,0.54,1.5,15.3,"14:22:40",1
"20/03/20","14:40",0.0,16.0,37.7,1006.0,329.6,3.2,6.2,352.9,0.53,1.6,15.3,"14:37:04",1
"20/03/20","14:50",0.0,16.1,37.3,1005.7,294.4,2.8,5.9,293.5,0.51,1.6,15.5,"14:43:04",1
"20/03/20","15:00",0.0,16.6,37.4,1005.7,320.9,2.5,5.8,340.7,0.49,2.1,15.6,"14:54:08",1
"20/03/20","15:10",0.0,16.3,37.0,1005.7,309.6,3.4,7.7,332.9,0.47,1.6,15.7,"15:04:48",1
"20/03/20","15:20",0.0,16.4,35.0,1006.0,280.0,2.5,5.6,343.7,0.46,1.0,15.7,"15:10:08",1
"20/03/20","15:30",0.0,17.0,35.5,1006.0,314.7,2.1,5.8,345.2,0.43,1.7,15.8,"15:29:44",1
"20/03/20","15:40",0.0,16.9,34.3,1005.7,327.4,2.0,5.1,330.8,0.41,1.1,15.8,"15:30:16",1
"20/03/20","15:50",0.0,16.8,35.1,1006.0,309.3,2.3,4.7,339.3,0.38,1.3,15.8,"15:46:48",1
"20/03/20","16:00",0.0,16.4,34.5,1006.0,313.2,2.6,6.5,340.2,0.35,0.8,15.7,"15:56:24",1
"20/03/20","16:10",0.0,16.5,36.1,1006.2,321.6,2.3,6.2,341.4,0.32,1.5,15.8,"16:06:16",1
"20/03/20","16:20",0.0,16.5,34.8,1006.0,353.6,2.1,4.4,18.6,0.30,1.0,16.1,"16:18:32",1
"20/03/20","16:30",0.0,16.3,36.1,1006.0,334.1,2.1,4.7,308.8,0.27,1.3,15.8,"16:22:08",1
"20/03/20","16:40",0.0,16.7,35.6,1006.4,244.8,0.5,1.8,96.6,0.25,1.5,15.8,"16:38:40",1
"20/03/20","16:50",0.0,16.4,35.3,1006.2,346.3,1.7,7.0,332.1,0.19,1.1,15.6,"16:46:16",1
"20/03/20","17:00",0.0,15.9,39.2,1006.2,347.4,2.1,4.7,339.6,0.14,2.1,15.7,"16:56:16",1
"20/03/20","17:10",0.0,15.6,38.4,1006.0,348.5,1.3,3.6,344.5,0.09,1.5,15.6,"17:00:48",1
"20/03/20","17:20",0.0,15.2,38.0,1006.4,330.3,1.3,2.8,325.4,0.03,1.0,15.4,"17:14:56",1
"20/03/20","17:30",0.0,14.1,44.3,1006.4,206.9,1.7,3.7,196.0,0.02,2.2,15.3,"17:25:52",1
"20/03/20","17:40",0.0,14.0,44.1,1006.7,253.2,2.3,5.1,230.7,0.03,2.0,15.2,"17:31:44",1
"20/03/20","17:50",0.0,13.7,45.4,1006.4,238.0,2.3,4.8,229.7,0.02,2.2,15.0,"17:45:04",1
"20/03/20","18:00",0.0,13.6,46.2,1006.7,253.4,1.8,3.5,252.0,0.01,2.3,14.8,"17:58:08",1
"20/03/20","18:10",0.0,13.4,46.1,1006.7,262.4,1.7,3.3,274.0,0.00,2.1,14.7,"18:03:28",1
"20/03/20","18:20",0.0,13.2,47.8,1006.9,315.0,2.1,3.6,327.7,0.00,2.4,14.3,"18:17:44",1
"20/03/20","18:30",0.0,12.8,47.9,1007.1,311.3,2.5,4.8,348.4,0.00,2.1,14.5,"18:26:50",1
"20/03/20","18:40",0.0,12.6,51.2,1007.6,333.8,1.8,4.2,336.9,0.00,2.8,14.3,"18:36:32",1
"20/03/20","18:50",0.0,11.8,54.6,1007.4,337.1,2.5,3.7,339.7,0.00,3.0,14.2,"18:44:38",1
"20/03/20","19:00",0.0,11.5,56.2,1007.8,336.7,3.0,5.0,336.5,0.00,3.1,14.2,"18:50:02",1
"20/03/20","19:10",0.0,11.3,57.0,1007.8,323.4,2.6,4.9,340.3,0.00,3.1,13.9,"19:00:08",1
"20/03/20","19:20",0.0,10.9,58.5,1007.8,316.8,1.8,3.4,334.7,0.00,3.1,13.7,"19:17:14",1
"20/03/20","19:30",0.0,10.6,60.3,1008.1,326.8,2.8,4.2,339.8,0.00,3.3,13.8,"19:25:28",1
"20/03/20","19:40",0.0,10.4,61.5,1008.1,328.6,2.3,5.1,334.6,0.00,3.4,13.6,"19:31:12",1
"20/03/20","19:50",0.0,10.2,62.8,1008.1,331.3,2.8,4.7,341.5,0.00,3.5,13.5,"19:40:48",1
"20/03/20","20:00",0.0,10.1,63.6,1008.1,328.9,2.8,4.5,343.1,0.00,3.6,13.2,"19:50:48",1
"20/03/20","20:10",0.0,10.0,64.3,1008.6,331.3,3.0,4.7,327.4,0.00,3.6,13.0,"20:08:16",1
"20/03/20","20:20",0.0,9.9,64.7,1008.8,326.8,2.5,4.4,333.3,0.00,3.6,13.1,"20:18:56",1
"20/03/20","20:30",0.0,9.7,65.3,1009.3,325.8,2.3,4.0,333.7,0.00,3.6,12.7,"20:29:28",1
"20/03/20","20:40",0.0,9.6,66.0,1009.0,331.9,2.5,3.9,318.2,0.00,3.6,12.7,"20:34:24",1
"20/03/20","20:50",0.0,9.3,66.9,1009.3,333.2,2.0,3.1,337.4,0.00,3.5,12.7,"20:49:04",1
"20/03/20","21:00",0.0,9.1,67.8,1009.0,330.2,2.2,3.9,327.8,0.00,3.5,12.6,"20:58:32",1
"20/03/20","21:10",0.0,9.0,68.7,1009.0,327.1,2.8,3.6,330.0,0.00,3.6,12.4,"21:03:20",1
"20/03/20","21:20",0.0,9.3,68.9,1009.3,323.6,3.1,4.7,334.5,0.00,3.9,12.6,"21:15:52",1
"20/03/20","21:30",0.0,9.4,68.6,1009.5,321.1,3.2,4.5,341.2,0.00,4.0,12.3,"21:26:16",1
"20/03/20","21:40",0.0,9.2,68.8,1009.7,303.8,2.6,4.8,335.8,0.00,3.8,12.3,"21:34:24",1
"20/03/20","21:50",0.0,8.5,69.3,1009.3,276.8,1.5,1.8,298.8,0.00,3.2,12.1,"21:40:08",1
"20/03/20","22:00",0.0,7.8,69.8,1009.5,285.5,1.2,1.4,311.8,0.00,2.7,12.1,"21:52:48",1
"20/03/20","22:10",0.0,7.3,70.5,1009.5,281.8,1.1,1.7,284.1,0.00,2.3,11.9,"22:02:40",1
"20/03/20","22:20",0.0,7.4,71.6,1009.7,286.8,1.7,2.5,294.7,0.00,2.7,11.9,"22:19:28",1
"20/03/20","22:30",0.0,7.2,72.8,1009.7,297.1,2.0,2.5,296.5,0.00,2.7,11.7,"22:27:04",1
"20/03/20","22:40",0.0,6.8,73.6,1009.7,301.6,1.6,2.4,311.6,0.00,2.5,11.8,"22:33:36",1
"20/03/20","22:50",0.0,6.6,74.8,1009.5,290.4,1.5,2.2,316.2,0.00,2.5,11.7,"22:48:38",1
"20/03/20","23:00",0.0,6.7,76.1,1009.5,303.2,2.1,2.4,325.1,0.00,2.8,11.5,"22:51:36",1
"20/03/20","23:10",0.0,6.5,77.1,1009.5,288.8,1.6,2.0,309.2,0.00,2.8,11.5,"23:01:12",1
"20/03/20","23:20",0.0,6.3,78.3,1009.3,289.6,1.7,2.1,302.4,0.00,2.8,11.3,"23:19:56",1
"20/03/20","23:30",0.0,6.2,79.6,1009.7,311.0,2.0,2.4,306.9,0.00,3.0,11.2,"23:27:24",1
"20/03/20","23:40",0.0,6.6,80.7,1009.3,318.2,2.5,3.7,303.7,0.00,3.6,11.1,"23:38:34",1
"20/03/20","23:50",0.0,7.2,81.1,1009.5,315.5,2.8,4.1,319.3,0.00,4.2,11.2,"23:45:28",1
"20/03/20","24:00",0.0,7.1,80.9,1009.3,305.3,2.8,4.0,311.8,0.00,4.1,10.8,"23:50:32",1
